THY8SA LTFM-LTBS

Flight info

Callsign THY8SA
Flight time 0h 54m
Altitude 34000
Route RATVU1E/36 RATVU UT35 NUMTI DCT KULAR UT44 ATSAL
Aircraft A321/M-SDE3FGHIRWY/LB1

Departure

Time 2026-04-25 13:03
Airport İstanbul Airport (LTFM)

Arrival

Time 2026-04-25 13:58
Airport Dalaman International Airport (LTBS)
Time Latitude Longitude Altitude Speed Heading
2026-04-25 12:47 41.26301 28.74875 334 ft 0 kts 286°
2026-04-25 12:55 41.26296 28.74900 330 ft 4 kts 287°
2026-04-25 12:55 41.26288 28.74934 334 ft 4 kts 287°
2026-04-25 12:56 41.26282 28.74962 329 ft 4 kts 276°
2026-04-25 12:56 41.26285 28.74994 333 ft 4 kts 230°
2026-04-25 12:56 41.26306 28.75013 333 ft 3 kts 197°
2026-04-25 12:56 41.26322 28.75020 333 ft 0 kts 197°
2026-04-25 12:59 41.26318 28.75018 332 ft 2 kts 197°
2026-04-25 12:59 41.26292 28.75009 334 ft 5 kts 188°
2026-04-25 13:00 41.26255 28.75032 332 ft 7 kts 131°
2026-04-25 13:00 41.26244 28.75074 330 ft 8 kts 99°
2026-04-25 13:00 41.26244 28.75175 331 ft 8 kts 89°
2026-04-25 13:00 41.26245 28.75257 334 ft 10 kts 89°
2026-04-25 13:01 41.26246 28.75353 332 ft 11 kts 89°
2026-04-25 13:01 41.26248 28.75461 332 ft 9 kts 89°
2026-04-25 13:01 41.26249 28.75526 333 ft 8 kts 89°
2026-04-25 13:01 41.26250 28.75604 333 ft 9 kts 87°
2026-04-25 13:02 41.26291 28.75663 330 ft 10 kts 15°
2026-04-25 13:02 41.26359 28.75665 331 ft 6 kts 359°
2026-04-25 13:02 41.26362 28.75665 334 ft 0 kts 359°
2026-04-25 13:02 41.26383 28.75665 330 ft 18 kts 359°
2026-04-25 13:03 41.26781 28.75658 332 ft 94 kts 359°
2026-04-25 13:03 41.27657 28.75641 335 ft 155 kts 359°
2026-04-25 13:03 41.28872 28.75611 536 ft 184 kts
2026-04-25 13:03 41.30136 28.75718 1266 ft 183 kts 22°
2026-04-25 13:04 41.31177 28.76649 1970 ft 183 kts 39°
2026-04-25 13:04 41.32272 28.77674 2266 ft 202 kts 33°
2026-04-25 13:04 41.33520 28.78712 2513 ft 222 kts 32°
2026-04-25 13:04 41.34920 28.79844 2774 ft 248 kts 31°
2026-04-25 13:05 41.36447 28.81062 3325 ft 261 kts 31°
2026-04-25 13:05 41.37829 28.82618 4048 ft 265 kts 57°
2026-04-25 13:05 41.38399 28.84935 4790 ft 268 kts 87°
2026-04-25 13:05 41.38417 28.87428 5580 ft 271 kts 90°
2026-04-25 13:06 41.38398 28.89947 6360 ft 274 kts 96°
2026-04-25 13:06 41.37793 28.92339 7083 ft 276 kts 124°
2026-04-25 13:06 41.36401 28.94086 7798 ft 279 kts 152°
2026-04-25 13:06 41.34535 28.94772 8515 ft 282 kts 177°
2026-04-25 13:07 41.32586 28.94817 9243 ft 285 kts 179°
2026-04-25 13:07 41.30595 28.94839 9982 ft 288 kts 179°
2026-04-25 13:07 41.28581 28.94859 10694 ft 291 kts 180°
2026-04-25 13:07 41.26498 28.94881 11013 ft 310 kts 180°
2026-04-25 13:08 41.24260 28.94861 11164 ft 333 kts 182°
2026-04-25 13:08 41.21870 28.94699 11307 ft 354 kts 184°
2026-04-25 13:08 41.19367 28.94448 11675 ft 366 kts 185°
2026-04-25 13:08 41.16810 28.94159 12284 ft 371 kts 185°
2026-04-25 13:09 41.14231 28.93868 12931 ft 374 kts 185°
2026-04-25 13:09 41.11622 28.93590 13560 ft 378 kts 185°
2026-04-25 13:09 41.08984 28.93329 14178 ft 382 kts 185°
2026-04-25 13:09 41.06321 28.93080 14800 ft 385 kts 184°
2026-04-25 13:10 41.03634 28.92837 15413 ft 389 kts 184°
2026-04-25 13:10 41.00920 28.92587 15996 ft 393 kts 185°
2026-04-25 13:10 40.98186 28.92288 16584 ft 396 kts 186°
2026-04-25 13:10 40.95427 28.91945 17165 ft 400 kts 186°
2026-04-25 13:11 40.92648 28.91577 17725 ft 403 kts 186°
2026-04-25 13:11 40.89846 28.91199 18270 ft 407 kts 186°
2026-04-25 13:11 40.87013 28.90945 18796 ft 410 kts 180°
2026-04-25 13:11 40.84188 28.91124 19290 ft 414 kts 177°
2026-04-25 13:12 40.81306 28.91357 19787 ft 417 kts 176°
2026-04-25 13:12 40.78401 28.91599 20271 ft 420 kts 176°
2026-04-25 13:12 40.75476 28.91845 20745 ft 423 kts 176°
2026-04-25 13:12 40.73484 28.92011 21048 ft 425 kts 176°
2026-04-25 13:13 40.69558 28.92330 21642 ft 429 kts 176°
2026-04-25 13:13 40.66573 28.92572 22078 ft 431 kts 176°
2026-04-25 13:13 40.63565 28.92813 22483 ft 434 kts 176°
2026-04-25 13:13 40.60543 28.93052 22887 ft 437 kts 176°
2026-04-25 13:14 40.57511 28.93505 23271 ft 440 kts 168°
2026-04-25 13:14 40.54569 28.94627 23673 ft 442 kts 158°
2026-04-25 13:14 40.51798 28.96403 24060 ft 445 kts 149°
2026-04-25 13:14 40.49195 28.98611 24446 ft 447 kts 147°
2026-04-25 13:15 40.46579 29.00850 24821 ft 450 kts 147°
2026-04-25 13:15 40.43950 29.03089 25189 ft 452 kts 147°
2026-04-25 13:15 40.41301 29.05336 25537 ft 454 kts 147°
2026-04-25 13:15 40.38640 29.07590 25871 ft 457 kts 147°
2026-04-25 13:16 40.35965 29.09858 26203 ft 459 kts 147°
2026-04-25 13:16 40.33276 29.12138 26534 ft 461 kts 147°
2026-04-25 13:16 40.30575 29.14428 26872 ft 464 kts 146°
2026-04-25 13:16 40.27861 29.16729 27194 ft 466 kts 146°
2026-04-25 13:17 40.25134 29.19043 27517 ft 468 kts 146°
2026-04-25 13:17 40.22435 29.21333 27834 ft 469 kts 146°
2026-04-25 13:17 40.19681 29.23618 28260 ft 468 kts 150°
2026-04-25 13:17 40.16750 29.25458 28686 ft 468 kts 158°
2026-04-25 13:18 40.13691 29.26911 29099 ft 467 kts 159°
2026-04-25 13:18 40.10639 29.28351 29518 ft 466 kts 159°
2026-04-25 13:18 40.07593 29.29793 29942 ft 465 kts 159°
2026-04-25 13:18 40.04555 29.31236 30349 ft 464 kts 159°
2026-04-25 13:19 40.01523 29.32677 30758 ft 463 kts 159°
2026-04-25 13:19 39.98502 29.34114 31155 ft 462 kts 159°
2026-04-25 13:19 39.95487 29.35546 31564 ft 460 kts 159°
2026-04-25 13:19 39.93498 29.36489 31850 ft 458 kts 159°
2026-04-25 13:20 39.89504 29.38398 32379 ft 456 kts 158°
2026-04-25 13:20 39.86564 29.39920 32747 ft 455 kts 156°
2026-04-25 13:20 39.83654 29.41521 33098 ft 453 kts 155°
2026-04-25 13:20 39.80764 29.43162 33441 ft 453 kts 155°
2026-04-25 13:21 39.77883 29.44808 33768 ft 451 kts 155°
2026-04-25 13:21 39.75004 29.46443 33954 ft 452 kts 155°
2026-04-25 13:21 39.69164 29.49221 33982 ft 451 kts 168°
2026-04-25 13:22 39.66049 29.49646 33987 ft 451 kts 179°
2026-04-25 13:22 39.62923 29.49303 33989 ft 453 kts 190°
2026-04-25 13:22 39.59890 29.48205 33989 ft 453 kts 201°
2026-04-25 13:23 39.54434 29.44123 34274 ft 453 kts 213°
2026-04-25 13:23 39.51812 29.41870 34646 ft 451 kts 213°
2026-04-25 13:23 39.49198 29.39639 35021 ft 449 kts 213°
2026-04-25 13:23 39.46584 29.37417 35301 ft 450 kts 213°
2026-04-25 13:24 39.43968 29.35199 35548 ft 450 kts 213°
2026-04-25 13:24 39.41343 29.32975 35800 ft 451 kts 213°
2026-04-25 13:24 39.38722 29.30753 35956 ft 451 kts 213°
2026-04-25 13:25 39.34367 29.27055 35989 ft 450 kts 213°
2026-04-25 13:25 39.28259 29.21874 35986 ft 449 kts 213°
2026-04-25 13:26 39.23041 29.17460 35990 ft 448 kts 213°
2026-04-25 13:26 39.17864 29.13086 35995 ft 448 kts 213°
2026-04-25 13:27 39.12647 29.08694 35999 ft 448 kts 213°
2026-04-25 13:27 39.07426 29.04301 36008 ft 448 kts 213°
2026-04-25 13:28 39.02204 28.99915 36015 ft 448 kts 213°
2026-04-25 13:28 38.96981 28.95538 36021 ft 448 kts 213°
2026-04-25 13:29 38.91760 28.91164 36022 ft 448 kts 213°
2026-04-25 13:29 38.86540 28.86802 36024 ft 447 kts 213°
2026-04-25 13:30 38.67661 28.71093 36009 ft 443 kts 213°
2026-04-25 13:30 38.56731 28.64102 35962 ft 442 kts 190°
2026-04-25 13:31 38.44985 28.64440 35680 ft 443 kts 178°
2026-04-25 13:31 38.41903 28.64680 35289 ft 444 kts 178°
2026-04-25 13:31 38.38817 28.64912 34784 ft 445 kts 178°
2026-04-25 13:31 38.35724 28.65143 34285 ft 445 kts 177°
2026-04-25 13:32 38.32642 28.65383 33783 ft 443 kts 177°
2026-04-25 13:32 38.29578 28.65632 33286 ft 440 kts 177°
2026-04-25 13:32 38.26535 28.65885 32786 ft 437 kts 176°
2026-04-25 13:32 38.23511 28.66138 32287 ft 434 kts 176°
2026-04-25 13:33 38.20507 28.66389 31789 ft 431 kts 176°
2026-04-25 13:33 38.17527 28.66638 31263 ft 428 kts 176°
2026-04-25 13:33 38.14563 28.66880 30744 ft 426 kts 176°
2026-04-25 13:33 38.12612 28.67040 30394 ft 424 kts 176°
2026-04-25 13:34 38.08694 28.67360 29689 ft 420 kts 176°
2026-04-25 13:34 38.05787 28.67595 29160 ft 417 kts 176°
2026-04-25 13:34 38.02899 28.67830 28635 ft 414 kts 176°
2026-04-25 13:34 38.00033 28.68061 28113 ft 412 kts 176°
2026-04-25 13:35 37.97183 28.68293 27585 ft 409 kts 176°
2026-04-25 13:35 37.94352 28.68524 27060 ft 406 kts 176°
2026-04-25 13:35 37.91580 28.68747 26539 ft 403 kts 176°
2026-04-25 13:35 37.88792 28.68973 26014 ft 400 kts 176°
2026-04-25 13:36 37.86024 28.69199 25491 ft 397 kts 176°
2026-04-25 13:36 37.83276 28.69426 24962 ft 395 kts 176°
2026-04-25 13:36 37.80545 28.69654 24441 ft 392 kts 176°
2026-04-25 13:36 37.77826 28.69879 23911 ft 390 kts 176°
2026-04-25 13:37 37.75123 28.70101 23384 ft 388 kts 176°
2026-04-25 13:37 37.72443 28.70320 22997 ft 383 kts 176°
2026-04-25 13:37 37.69793 28.70528 22558 ft 380 kts 177°
2026-04-25 13:37 37.67158 28.70717 22099 ft 378 kts 177°
2026-04-25 13:38 37.64542 28.70894 21635 ft 375 kts 177°
2026-04-25 13:38 37.61979 28.71065 21290 ft 360 kts 177°
2026-04-25 13:38 37.59515 28.71232 20488 ft 350 kts 178°
2026-04-25 13:38 37.57113 28.71398 20137 ft 342 kts 178°
2026-04-25 13:39 37.54755 28.71566 19767 ft 338 kts 178°
2026-04-25 13:39 37.52421 28.71732 19368 ft 334 kts 178°
2026-04-25 13:39 37.50111 28.71895 18977 ft 331 kts 178°
2026-04-25 13:39 37.47826 28.72024 18633 ft 326 kts 179°
2026-04-25 13:40 37.45574 28.72104 18299 ft 322 kts 180°
2026-04-25 13:40 37.43352 28.72160 17987 ft 317 kts 180°
2026-04-25 13:40 37.41151 28.72210 17638 ft 315 kts 180°
2026-04-25 13:40 37.38968 28.72264 17308 ft 313 kts 180°
2026-04-25 13:41 37.36797 28.72325 16984 ft 311 kts 180°
2026-04-25 13:41 37.34639 28.72393 16664 ft 309 kts 180°
2026-04-25 13:41 37.32493 28.72462 16345 ft 308 kts 180°
2026-04-25 13:41 37.30357 28.72531 16025 ft 306 kts 180°
2026-04-25 13:42 37.28232 28.72601 15709 ft 305 kts 180°
2026-04-25 13:42 37.26118 28.72670 15387 ft 303 kts 180°
2026-04-25 13:42 37.24016 28.72740 15072 ft 301 kts 180°
2026-04-25 13:42 37.22629 28.72787 14852 ft 301 kts 179°
2026-04-25 13:43 37.19870 28.72877 14445 ft 298 kts 180°
2026-04-25 13:43 37.17800 28.72943 14134 ft 297 kts 180°
2026-04-25 13:43 37.15738 28.73009 13827 ft 295 kts 180°
2026-04-25 13:43 37.13689 28.73074 13524 ft 294 kts 180°
2026-04-25 13:44 37.11651 28.73136 13215 ft 293 kts 179°
2026-04-25 13:44 37.10275 28.73179 13006 ft 292 kts 179°
2026-04-25 13:44 37.08253 28.73244 12704 ft 290 kts 179°
2026-04-25 13:44 37.06241 28.73299 12397 ft 288 kts 181°
2026-04-25 13:45 37.04270 28.73238 12132 ft 286 kts 183°
2026-04-25 13:45 37.02288 28.73095 11902 ft 285 kts 184°
2026-04-25 13:45 37.00313 28.72923 11604 ft 284 kts 185°
2026-04-25 13:45 36.98343 28.72750 11312 ft 284 kts 184°
2026-04-25 13:46 36.96375 28.72584 11014 ft 284 kts 184°
2026-04-25 13:46 36.94405 28.72425 10716 ft 284 kts 184°
2026-04-25 13:46 36.92438 28.72274 10423 ft 283 kts 183°
2026-04-25 13:46 36.90478 28.72123 10127 ft 283 kts 185°
2026-04-25 13:47 36.88550 28.71668 9837 ft 283 kts 193°
2026-04-25 13:47 36.86640 28.71061 9546 ft 284 kts 193°
2026-04-25 13:47 36.84730 28.70461 9244 ft 283 kts 193°
2026-04-25 13:47 36.82817 28.69862 8960 ft 283 kts 193°
2026-04-25 13:48 36.80905 28.69267 8662 ft 283 kts 192°
2026-04-25 13:48 36.78993 28.68674 8369 ft 283 kts 192°
2026-04-25 13:48 36.77088 28.68082 8076 ft 282 kts 192°
2026-04-25 13:48 36.75191 28.67492 7781 ft 281 kts 192°
2026-04-25 13:49 36.73301 28.66904 7522 ft 277 kts 192°
2026-04-25 13:49 36.71470 28.66333 7402 ft 266 kts 192°
2026-04-25 13:49 36.69708 28.65781 7273 ft 256 kts 192°
2026-04-25 13:49 36.68031 28.65251 7079 ft 250 kts 192°
2026-04-25 13:50 36.66367 28.64697 6879 ft 246 kts 193°
2026-04-25 13:50 36.64724 28.64138 6639 ft 244 kts 193°
2026-04-25 13:50 36.63094 28.63578 6384 ft 243 kts 193°
2026-04-25 13:50 36.61466 28.63021 6117 ft 242 kts 193°
2026-04-25 13:51 36.59844 28.62471 5853 ft 241 kts 192°
2026-04-25 13:51 36.58227 28.61925 5588 ft 240 kts 192°
2026-04-25 13:51 36.56619 28.61380 5288 ft 239 kts 192°
2026-04-25 13:51 36.54997 28.61137 4992 ft 232 kts 168°
2026-04-25 13:52 36.53551 28.61907 4710 ft 227 kts 138°
2026-04-25 13:52 36.52641 28.63465 4437 ft 224 kts 109°
2026-04-25 13:52 36.52215 28.65334 4162 ft 225 kts 105°
2026-04-25 13:52 36.51810 28.67198 3899 ft 221 kts 105°
2026-04-25 13:53 36.51413 28.69006 3775 ft 210 kts 105°
2026-04-25 13:53 36.51214 28.70759 3651 ft 205 kts 82°
2026-04-25 13:53 36.51854 28.72322 3572 ft 210 kts 45°
2026-04-25 13:53 36.53170 28.73114 3389 ft 215 kts 18°
2026-04-25 13:54 36.54615 28.73584 3119 ft 214 kts 18°
2026-04-25 13:54 36.56050 28.74057 2840 ft 214 kts 18°
2026-04-25 13:54 36.57475 28.74537 2571 ft 208 kts 17°
2026-04-25 13:54 36.58842 28.75001 2302 ft 199 kts 17°
2026-04-25 13:55 36.60151 28.75446 2030 ft 191 kts 15°
2026-04-25 13:55 36.61368 28.75860 1789 ft 177 kts 15°
2026-04-25 13:55 36.62513 28.76250 1577 ft 164 kts 14°
2026-04-25 13:55 36.63596 28.76619 1352 ft 158 kts 14°
2026-04-25 13:56 36.64650 28.76978 1138 ft 155 kts 13°
2026-04-25 13:56 36.65684 28.77332 936 ft 153 kts 13°
2026-04-25 13:56 36.66702 28.77677 746 ft 150 kts 14°
2026-04-25 13:56 36.67699 28.78018 536 ft 147 kts 14°
2026-04-25 13:57 36.68681 28.78350 320 ft 146 kts 14°
2026-04-25 13:57 36.69329 28.78570 191 ft 146 kts 14°
2026-04-25 13:57 36.70617 28.79013 31 ft 133 kts 14°
2026-04-25 13:57 36.71372 28.79269 27 ft 89 kts 15°
2026-04-25 13:58 36.71802 28.79416 27 ft 38 kts 14°
2026-04-25 13:58 36.71987 28.79429 27 ft 23 kts 351°
2026-04-25 13:58 36.72125 28.79386 27 ft 19 kts 346°
2026-04-25 13:58 36.72233 28.79352 27 ft 10 kts 346°
2026-04-25 13:59 36.72285 28.79296 27 ft 10 kts 285°
2026-04-25 13:59 36.72302 28.79214 27 ft 9 kts 285°
2026-04-25 13:59 36.72317 28.79146 27 ft 8 kts 285°
2026-04-25 13:59 36.72325 28.79108 27 ft 1 kts 285°
2026-04-25 14:00 36.72329 28.79092 27 ft 2 kts 285°
2026-04-25 14:00 36.72331 28.79084 27 ft 0 kts 285°